Time,TemperatureF,DewpointF,PressureIn,WindDirection,WindDirectionDegrees,WindSpeedMPH,WindSpeedGustMPH,Humidity,HourlyPrecipIn,Conditions,Clouds,dailyrainin,SoftwareType,DateUTC
2013-08-14 00:00:00,67.0,62.0,29.66,West,262,0.0,0.0,84,0.00,,,0.00,Wunderground v.1.15,2013-08-14 04:00:00,
2013-08-14 00:30:00,66.4,61.8,29.66,West,262,0.0,0.0,85,0.00,,,0.00,Wunderground v.1.15,2013-08-14 04:30:00,
2013-08-14 01:00:00,66.4,61.8,29.66,West,259,0.0,0.0,85,0.00,,,0.00,Wunderground v.1.15,2013-08-14 05:00:00,
2013-08-14 01:30:00,66.5,61.8,29.65,West,262,0.0,0.0,85,0.00,,,0.00,Wunderground v.1.15,2013-08-14 05:30:00,
2013-08-14 02:00:00,65.9,61.3,29.65,West,259,0.0,0.0,85,0.00,,,0.00,Wunderground v.1.15,2013-08-14 06:00:00,
2013-08-14 02:30:00,65.2,60.9,29.65,West,266,0.0,0.0,86,0.00,,,0.00,Wunderground v.1.15,2013-08-14 06:30:00,
2013-08-14 03:00:00,65.5,61.5,29.64,WSW,257,0.0,0.0,87,0.00,,,0.00,Wunderground v.1.15,2013-08-14 07:00:00,
2013-08-14 04:00:00,65.9,61.9,29.66,West,263,1.0,4.0,87,0.00,,,0.00,Wunderground v.1.15,2013-08-14 08:00:00,
2013-08-14 04:30:00,66.3,61.0,29.65,SW,220,2.0,2.0,83,0.00,,,0.00,Wunderground v.1.15,2013-08-14 08:30:00,
2013-08-14 05:00:00,65.2,58.5,29.67,WNW,285,1.0,1.0,79,0.00,,,0.00,Wunderground v.1.15,2013-08-14 09:00:00,
2013-08-14 05:30:00,64.2,56.5,29.68,West,278,1.0,2.0,76,0.00,,,0.00,Wunderground v.1.15,2013-08-14 09:30:00,
2013-08-14 06:00:00,63.3,54.1,29.69,West,270,1.0,1.0,72,0.00,,,0.00,Wunderground v.1.15,2013-08-14 10:00:00,
2013-08-14 06:30:00,62.9,53.4,29.70,West,263,1.0,1.0,71,0.00,,,0.00,Wunderground v.1.15,2013-08-14 10:30:00,
2013-08-14 07:00:00,62.2,53.1,29.71,WSW,248,1.0,1.0,72,0.00,,,0.00,Wunderground v.1.15,2013-08-14 11:00:00,
2013-08-14 07:30:00,62.7,52.0,29.71,West,271,2.0,3.0,68,0.00,,,0.00,Wunderground v.1.15,2013-08-14 11:30:00,
2013-08-14 08:00:00,63.9,52.3,29.71,West,269,3.0,3.0,66,0.00,,,0.00,Wunderground v.1.15,2013-08-14 12:00:00,
2013-08-14 08:30:00,64.5,51.6,29.71,West,281,4.0,4.0,63,0.00,,,0.00,Wunderground v.1.15,2013-08-14 12:30:00,
2013-08-14 09:00:00,65.6,51.8,29.70,West,278,5.0,5.0,61,0.00,,,0.00,Wunderground v.1.15,2013-08-14 13:00:00,
2013-08-14 09:30:00,66.9,52.6,29.70,West,263,4.0,6.0,60,0.00,,,0.00,Wunderground v.1.15,2013-08-14 13:30:00,
2013-08-14 10:00:00,67.8,52.5,29.70,NW,319,4.0,4.0,58,0.00,,,0.00,Wunderground v.1.15,2013-08-14 14:00:00,
2013-08-14 10:30:00,69.1,53.7,29.70,WNW,292,3.0,7.0,58,0.00,,,0.00,Wunderground v.1.15,2013-08-14 14:30:00,
2013-08-14 11:00:00,70.0,53.1,29.70,SW,215,5.0,5.0,55,0.00,,,0.00,Wunderground v.1.15,2013-08-14 15:00:00,
2013-08-14 11:30:00,71.0,54.0,29.70,SW,215,5.0,5.0,55,0.00,,,0.00,Wunderground v.1.15,2013-08-14 15:30:00,
2013-08-14 12:00:00,72.2,53.1,29.71,West,267,5.0,5.0,51,0.00,,,0.00,Wunderground v.1.15,2013-08-14 16:00:00,
2013-08-14 12:30:00,73.1,53.9,29.70,WSW,245,4.0,5.0,51,0.00,,,0.00,Wunderground v.1.15,2013-08-14 16:30:00,
2013-08-14 13:00:00,73.4,52.5,29.72,WNW,283,4.0,7.0,48,0.00,,,0.00,Wunderground v.1.15,2013-08-14 17:00:00,
2013-08-14 13:30:00,73.2,52.9,29.71,NW,319,5.0,5.0,49,0.00,,,0.00,Wunderground v.1.15,2013-08-14 17:30:00,
2013-08-14 14:00:00,73.4,52.5,29.71,West,277,6.0,6.0,48,0.00,,,0.00,Wunderground v.1.15,2013-08-14 18:00:00,
2013-08-14 14:30:00,73.6,53.8,29.71,ESE,120,5.0,5.0,50,0.00,,,0.00,Wunderground v.1.15,2013-08-14 18:30:00,
2013-08-14 15:00:00,75.3,53.7,29.71,WSW,248,4.0,5.0,47,0.00,,,0.00,Wunderground v.1.15,2013-08-14 19:00:00,
2013-08-14 15:30:00,74.7,53.1,29.72,West,264,5.0,5.0,47,0.00,,,0.00,Wunderground v.1.15,2013-08-14 19:30:00,
2013-08-14 16:00:00,74.2,53.8,29.73,South,181,4.0,5.0,49,0.00,,,0.00,Wunderground v.1.15,2013-08-14 20:00:00,
2013-08-14 16:30:00,75.5,53.3,29.73,West,276,6.0,6.0,46,0.00,,,0.00,Wunderground v.1.15,2013-08-14 20:30:00,
2013-08-14 17:00:00,75.9,53.6,29.73,SW,229,5.0,5.0,46,0.00,,,0.00,Wunderground v.1.15,2013-08-14 21:00:00,
2013-08-14 17:30:00,75.7,54.6,29.75,West,277,4.0,4.0,48,0.00,,,0.00,Wunderground v.1.15,2013-08-14 21:30:00,
2013-08-14 18:00:00,74.6,54.2,29.76,SW,235,5.0,6.0,49,0.00,,,0.00,Wunderground v.1.15,2013-08-14 22:00:00,
2013-08-14 18:30:00,73.9,53.5,29.77,NW,319,5.0,5.0,49,0.00,,,0.00,Wunderground v.1.15,2013-08-14 22:30:00,
2013-08-14 19:00:00,71.4,54.4,29.79,NE,36,4.0,4.0,55,0.00,,,0.00,Wunderground v.1.15,2013-08-14 23:00:00,
2013-08-14 19:30:00,70.1,55.1,29.81,WSW,256,3.0,3.0,59,0.00,,,0.00,Wunderground v.1.15,2013-08-14 23:30:00,
2013-08-14 20:00:00,68.9,54.9,29.82,WSW,253,2.0,3.0,61,0.00,,,0.00,Wunderground v.1.15,2013-08-15 00:00:00,
2013-08-14 20:30:00,68.0,54.5,29.84,WNW,283,2.0,4.0,62,0.00,,,0.00,Wunderground v.1.15,2013-08-15 00:30:00,
2013-08-14 21:00:00,67.1,54.9,29.86,WSW,238,1.0,2.0,65,0.00,,,0.00,Wunderground v.1.15,2013-08-15 01:00:00,
2013-08-14 21:30:00,66.1,55.2,29.88,WNW,283,1.0,1.0,68,0.00,,,0.00,Wunderground v.1.15,2013-08-15 01:30:00,
2013-08-14 22:00:00,65.1,55.1,29.90,West,276,1.0,1.0,70,0.00,,,0.00,Wunderground v.1.15,2013-08-15 02:00:00,
2013-08-14 22:30:00,64.6,52.6,29.91,West,269,2.0,2.0,65,0.00,,,0.00,Wunderground v.1.15,2013-08-15 02:30:00,
2013-08-14 23:00:00,63.7,52.5,29.92,West,280,1.0,1.0,67,0.00,,,0.00,Wunderground v.1.15,2013-08-15 03:00:00,
2013-08-14 23:30:00,63.2,52.9,29.93,West,271,2.0,2.0,69,0.00,,,0.00,Wunderground v.1.15,2013-08-15 03:30:00,